Time,TemperatureF,DewpointF,PressureIn,WindDirection,WindDirectionDegrees,WindSpeedMPH,WindSpeedGustMPH,Humidity,HourlyPrecipIn,Conditions,Clouds,dailyrainin,SoftwareType,DateUTC
2013-08-21 00:01:00,79.0,74.5,30.11,SW,225,0.0,0.0,86,0.00,,,0.00,WeatherCatV1.21B27,2013-08-21 04:01:00,
2013-08-21 00:06:00,78.6,74.5,30.12,SW,225,0.0,0.0,87,0.00,,,0.00,WeatherCatV1.21B27,2013-08-21 04:06:00,
2013-08-21 00:11:00,78.6,74.5,30.12,SW,225,0.0,0.0,87,0.00,,,0.00,WeatherCatV1.21B27,2013-08-21 04:11:00,
2013-08-21 00:16:00,78.4,74.3,30.12,SW,225,0.0,0.0,87,0.00,,,0.00,WeatherCatV1.21B27,2013-08-21 04:16:00,
2013-08-21 00:21:00,78.3,74.1,30.12,SW,225,0.0,0.0,87,0.00,,,0.00,WeatherCatV1.21B27,2013-08-21 04:21:00,
2013-08-21 00:26:00,78.1,74.3,30.12,SW,225,0.0,0.0,88,0.00,,,0.00,WeatherCatV1.21B27,2013-08-21 04:26:00,
2013-08-21 00:31:00,78.1,73.9,30.12,SW,225,0.0,0.0,87,0.00,,,0.00,WeatherCatV1.21B27,2013-08-21 04:31:00,
2013-08-21 00:36:00,77.9,73.8,30.11,SW,225,0.0,0.0,87,0.00,,,0.00,WeatherCatV1.21B27,2013-08-21 04:36:00,
2013-08-21 00:41:00,77.9,73.8,30.11,SW,225,0.0,0.0,87,0.00,,,0.00,WeatherCatV1.21B27,2013-08-21 04:41:00,
2013-08-21 00:46:00,77.7,73.6,30.12,SW,225,0.0,0.0,87,0.00,,,0.00,WeatherCatV1.21B27,2013-08-21 04:46:00,
2013-08-21 00:51:00,77.7,73.9,30.11,SW,225,0.0,0.0,88,0.00,,,0.00,WeatherCatV1.21B27,2013-08-21 04:51:00,
2013-08-21 00:56:00,77.5,73.8,30.11,SW,225,0.0,0.0,88,0.00,,,0.00,WeatherCatV1.21B27,2013-08-21 04:56:00,
2013-08-21 01:01:00,77.5,73.8,30.11,SW,225,0.0,0.0,88,0.00,,,0.00,WeatherCatV1.21B27,2013-08-21 05:01:00,
2013-08-21 01:06:00,77.5,73.8,30.11,SW,225,0.0,0.0,88,0.00,,,0.00,WeatherCatV1.21B27,2013-08-21 05:06:00,
2013-08-21 01:11:00,77.4,73.6,30.11,SW,225,0.0,0.0,88,0.00,,,0.00,WeatherCatV1.21B27,2013-08-21 05:11:00,
2013-08-21 01:16:00,77.4,73.6,30.11,SW,225,0.0,0.0,88,0.00,,,0.00,WeatherCatV1.21B27,2013-08-21 05:16:00,
2013-08-21 01:21:00,77.4,73.6,30.11,SW,225,0.0,0.0,88,0.00,,,0.00,WeatherCatV1.21B27,2013-08-21 05:21:00,
2013-08-21 01:26:00,77.4,73.6,30.11,SW,225,0.0,0.0,88,0.00,,,0.00,WeatherCatV1.21B27,2013-08-21 05:26:00,
2013-08-21 01:31:00,77.2,73.4,30.10,SW,225,0.0,0.0,88,0.00,,,0.00,WeatherCatV1.21B27,2013-08-21 05:31:00,
2013-08-21 01:36:00,77.2,73.8,30.10,SW,225,0.0,0.0,89,0.00,,,0.00,WeatherCatV1.21B27,2013-08-21 05:36:00,
2013-08-21 01:41:00,77.0,73.6,30.10,SW,225,0.0,0.0,89,0.00,,,0.00,WeatherCatV1.21B27,2013-08-21 05:41:00,
2013-08-21 01:46:00,77.2,73.8,30.10,SW,225,0.0,0.0,89,0.00,,,0.00,WeatherCatV1.21B27,2013-08-21 05:46:00,
2013-08-21 01:51:00,77.2,73.8,30.10,SW,225,0.0,0.0,89,0.00,,,0.00,WeatherCatV1.21B27,2013-08-21 05:51:00,
2013-08-21 01:56:00,77.2,73.8,30.10,SW,225,0.0,0.0,89,0.00,,,0.00,WeatherCatV1.21B27,2013-08-21 05:56:00,
2013-08-21 02:01:00,77.0,73.6,30.10,SW,225,0.0,0.0,89,0.00,,,0.00,WeatherCatV1.21B27,2013-08-21 06:01:00,
2013-08-21 02:06:00,77.0,73.6,30.10,SW,225,0.0,0.0,89,0.00,,,0.00,WeatherCatV1.21B27,2013-08-21 06:06:00,
2013-08-21 02:11:00,77.2,73.8,30.10,SW,225,0.0,0.0,89,0.00,,,0.00,WeatherCatV1.21B27,2013-08-21 06:11:00,
2013-08-21 02:16:00,77.2,73.8,30.10,SW,225,0.0,0.0,89,0.00,,,0.00,WeatherCatV1.21B27,2013-08-21 06:16:00,
2013-08-21 02:21:00,77.4,74.3,30.09,SW,225,0.0,0.0,90,0.00,,,0.00,WeatherCatV1.21B27,2013-08-21 06:21:00,
2013-08-21 02:26:00,77.2,74.1,30.09,SW,225,0.0,0.0,90,0.00,,,0.00,WeatherCatV1.21B27,2013-08-21 06:26:00,
2013-08-21 02:31:00,77.4,74.3,30.09,SW,225,0.0,0.0,90,0.00,,,0.00,WeatherCatV1.21B27,2013-08-21 06:31:00,
2013-08-21 02:36:00,77.4,74.3,30.08,SW,225,0.0,0.0,90,0.00,,,0.00,WeatherCatV1.21B27,2013-08-21 06:36:00,
2013-08-21 02:41:00,77.5,74.5,30.09,SW,225,0.0,0.0,90,0.00,,,0.00,WeatherCatV1.21B27,2013-08-21 06:41:00,
2013-08-21 02:46:00,77.5,74.5,30.09,SW,225,0.0,0.0,90,0.00,,,0.00,WeatherCatV1.21B27,2013-08-21 06:46:00,
2013-08-21 02:51:00,77.5,74.5,30.08,SW,225,0.0,0.0,90,0.00,,,0.00,WeatherCatV1.21B27,2013-08-21 06:51:00,
2013-08-21 02:56:00,77.5,74.5,30.09,SW,225,0.0,0.0,90,0.00,,,0.00,WeatherCatV1.21B27,2013-08-21 06:56:00,
2013-08-21 03:01:00,77.7,74.7,30.09,SW,225,0.0,0.0,90,0.00,,,0.00,WeatherCatV1.21B27,2013-08-21 07:01:00,
2013-08-21 03:06:00,77.7,74.7,30.09,SW,225,0.0,0.0,90,0.00,,,0.00,WeatherCatV1.21B27,2013-08-21 07:06:00,
2013-08-21 03:11:00,77.7,74.7,30.09,SW,225,0.0,0.0,90,0.00,,,0.00,WeatherCatV1.21B27,2013-08-21 07:11:00,
2013-08-21 03:16:00,77.7,74.7,30.10,SW,225,0.0,0.0,90,0.00,,,0.00,WeatherCatV1.21B27,2013-08-21 07:16:00,
2013-08-21 03:21:00,77.7,74.7,30.09,SW,225,0.0,0.0,90,0.00,,,0.00,WeatherCatV1.21B27,2013-08-21 07:21:00,
2013-08-21 03:26:00,77.7,74.7,30.09,SW,225,0.0,0.0,90,0.00,,,0.00,WeatherCatV1.21B27,2013-08-21 07:26:00,
2013-08-21 03:31:00,77.7,74.7,30.08,SW,225,0.0,0.0,90,0.00,,,0.00,WeatherCatV1.21B27,2013-08-21 07:31:00,
2013-08-21 03:36:00,77.7,74.7,30.08,SW,225,0.0,0.0,90,0.00,,,0.00,WeatherCatV1.21B27,2013-08-21 07:36:00,
2013-08-21 03:41:00,77.7,74.7,30.08,SW,225,0.0,0.0,90,0.00,,,0.00,WeatherCatV1.21B27,2013-08-21 07:41:00,
2013-08-21 03:46:00,77.7,74.7,30.08,SW,225,0.0,0.0,90,0.00,,,0.00,WeatherCatV1.21B27,2013-08-21 07:46:00,
2013-08-21 03:51:00,77.7,74.7,30.08,SW,225,0.0,0.0,90,0.00,,,0.00,WeatherCatV1.21B27,2013-08-21 07:51:00,
2013-08-21 03:56:00,77.9,74.8,30.08,SW,225,0.0,0.0,90,0.00,,,0.00,WeatherCatV1.21B27,2013-08-21 07:56:00,
2013-08-21 04:01:00,77.9,74.8,30.08,SW,225,0.0,0.0,90,0.00,,,0.00,WeatherCatV1.21B27,2013-08-21 08:01:00,
2013-08-21 04:06:00,77.9,74.8,30.08,SW,225,0.0,0.0,90,0.00,,,0.00,WeatherCatV1.21B27,2013-08-21 08:06:00,
2013-08-21 04:11:00,77.9,74.8,30.09,SW,225,0.0,0.0,90,0.00,,,0.00,WeatherCatV1.21B27,2013-08-21 08:11:00,
2013-08-21 04:16:00,78.1,75.0,30.09,SW,225,0.0,0.0,90,0.00,,,0.00,WeatherCatV1.21B27,2013-08-21 08:16:00,
2013-08-21 04:21:00,78.1,75.0,30.09,SW,225,0.0,0.0,90,0.00,,,0.00,WeatherCatV1.21B27,2013-08-21 08:21:00,
2013-08-21 04:26:00,78.1,75.0,30.08,SW,225,0.0,0.0,90,0.00,,,0.00,WeatherCatV1.21B27,2013-08-21 08:26:00,
2013-08-21 04:31:00,78.1,75.0,30.09,SW,225,0.0,0.0,90,0.00,,,0.00,WeatherCatV1.21B27,2013-08-21 08:31:00,
2013-08-21 04:36:00,78.1,75.0,30.09,SW,225,0.0,0.0,90,0.00,,,0.00,WeatherCatV1.21B27,2013-08-21 08:36:00,
2013-08-21 04:41:00,78.1,75.0,30.08,SW,225,0.0,0.0,90,0.00,,,0.00,WeatherCatV1.21B27,2013-08-21 08:41:00,
2013-08-21 04:46:00,78.1,75.0,30.08,SW,225,0.0,0.0,90,0.00,,,0.00,WeatherCatV1.21B27,2013-08-21 08:46:00,
2013-08-21 04:51:00,78.1,75.0,30.08,SW,225,0.0,0.0,90,0.00,,,0.00,WeatherCatV1.21B27,2013-08-21 08:51:00,
2013-08-21 04:56:00,78.1,75.0,30.08,SW,225,0.0,0.0,90,0.00,,,0.00,WeatherCatV1.21B27,2013-08-21 08:56:00,
2013-08-21 05:01:00,78.1,74.7,30.08,SW,225,0.0,0.0,89,0.00,,,0.00,WeatherCatV1.21B27,2013-08-21 09:01:00,
2013-08-21 05:06:00,78.1,74.7,30.08,SW,225,0.0,0.0,89,0.00,,,0.00,WeatherCatV1.21B27,2013-08-21 09:06:00,
2013-08-21 05:11:00,78.1,74.7,30.08,SW,225,0.0,0.0,89,0.00,,,0.00,WeatherCatV1.21B27,2013-08-21 09:11:00,
2013-08-21 05:16:00,78.1,74.7,30.08,SW,225,0.0,0.0,89,0.00,,,0.00,WeatherCatV1.21B27,2013-08-21 09:16:00,
2013-08-21 05:21:00,78.1,74.7,30.08,SW,225,0.0,0.0,89,0.00,,,0.00,WeatherCatV1.21B27,2013-08-21 09:21:00,
2013-08-21 05:26:00,78.1,74.7,30.08,SW,225,0.0,0.0,89,0.00,,,0.00,WeatherCatV1.21B27,2013-08-21 09:26:00,
2013-08-21 05:31:00,78.1,75.0,30.08,SW,225,0.0,0.0,90,0.00,,,0.00,WeatherCatV1.21B27,2013-08-21 09:31:00,
2013-08-21 05:36:00,78.1,74.7,30.08,SW,225,0.0,0.0,89,0.00,,,0.00,WeatherCatV1.21B27,2013-08-21 09:36:00,
2013-08-21 05:41:00,78.1,75.0,30.08,SW,225,0.0,0.0,90,0.00,,,0.00,WeatherCatV1.21B27,2013-08-21 09:41:00,
2013-08-21 05:46:00,78.1,74.7,30.08,SW,225,0.0,0.0,89,0.00,,,0.00,WeatherCatV1.21B27,2013-08-21 09:46:00,
2013-08-21 05:51:00,78.1,74.7,30.09,SW,225,0.0,0.0,89,0.00,,,0.00,WeatherCatV1.21B27,2013-08-21 09:51:00,
2013-08-21 05:56:00,77.9,74.5,30.09,SW,225,0.0,0.0,89,0.00,,,0.00,WeatherCatV1.21B27,2013-08-21 09:56:00,
2013-08-21 06:01:00,77.9,74.5,30.09,SW,225,0.0,0.0,89,0.00,,,0.00,WeatherCatV1.21B27,2013-08-21 10:01:00,
2013-08-21 06:06:00,77.9,74.5,30.09,SW,225,0.0,0.0,89,0.00,,,0.00,WeatherCatV1.21B27,2013-08-21 10:06:00,
2013-08-21 06:11:00,77.7,74.3,30.09,SW,225,0.0,0.0,89,0.00,,,0.00,WeatherCatV1.21B27,2013-08-21 10:11:00,
2013-08-21 06:16:00,77.7,74.3,30.09,SW,225,0.0,0.0,89,0.00,,,0.00,WeatherCatV1.21B27,2013-08-21 10:16:00,
2013-08-21 06:21:00,77.7,74.3,30.09,SW,225,0.0,0.0,89,0.00,,,0.00,WeatherCatV1.21B27,2013-08-21 10:21:00,
2013-08-21 06:26:00,77.7,74.3,30.10,SW,225,0.0,0.0,89,0.00,,,0.00,WeatherCatV1.21B27,2013-08-21 10:26:00,
2013-08-21 06:31:00,77.7,74.3,30.10,SW,225,0.0,0.0,89,0.00,,,0.00,WeatherCatV1.21B27,2013-08-21 10:31:00,
2013-08-21 06:36:00,77.5,74.1,30.10,SW,225,0.0,0.0,89,0.00,,,0.00,WeatherCatV1.21B27,2013-08-21 10:36:00,
2013-08-21 06:41:00,77.5,74.5,30.10,SW,225,0.0,0.0,90,0.00,,,0.00,WeatherCatV1.21B27,2013-08-21 10:41:00,
2013-08-21 06:46:00,77.5,74.5,30.10,SSW,202,0.0,0.0,90,0.00,,,0.00,WeatherCatV1.21B27,2013-08-21 10:46:00,
2013-08-21 06:51:00,77.5,74.5,30.10,SSE,157,0.0,0.0,90,0.00,,,0.00,WeatherCatV1.21B27,2013-08-21 10:51:00,
2013-08-21 06:56:00,77.5,74.5,30.10,SSE,157,0.0,0.0,90,0.00,,,0.00,WeatherCatV1.21B27,2013-08-21 10:56:00,
2013-08-21 07:01:00,77.5,74.5,30.10,SSE,157,0.0,0.0,90,0.00,,,0.00,WeatherCatV1.21B27,2013-08-21 11:01:00,
2013-08-21 07:06:00,77.5,74.1,30.10,SSE,157,0.0,0.0,89,0.00,,,0.00,WeatherCatV1.21B27,2013-08-21 11:06:00,
2013-08-21 07:11:00,77.5,74.5,30.11,SSE,157,0.0,0.0,90,0.00,,,0.00,WeatherCatV1.21B27,2013-08-21 11:11:00,
2013-08-21 07:16:00,77.7,74.7,30.10,SSE,157,0.0,0.0,90,0.00,,,0.00,WeatherCatV1.21B27,2013-08-21 11:16:00,
2013-08-21 07:21:00,77.7,74.7,30.10,SSE,157,0.0,0.0,90,0.00,,,0.00,WeatherCatV1.21B27,2013-08-21 11:21:00,
2013-08-21 07:26:00,77.7,74.7,30.12,SSE,157,0.0,0.0,90,0.00,,,0.00,WeatherCatV1.21B27,2013-08-21 11:26:00,
2013-08-21 07:31:00,77.7,74.7,30.12,SSE,157,0.0,0.0,90,0.00,,,0.00,WeatherCatV1.21B27,2013-08-21 11:31:00,
2013-08-21 07:36:00,77.7,74.7,30.12,SSE,157,0.0,0.0,90,0.00,,,0.00,WeatherCatV1.21B27,2013-08-21 11:36:00,
2013-08-21 07:41:00,77.7,74.7,30.12,SE,135,0.0,0.0,90,0.00,,,0.00,WeatherCatV1.21B27,2013-08-21 11:41:00,
2013-08-21 07:46:00,77.9,74.8,30.12,SSE,157,0.0,0.0,90,0.00,,,0.00,WeatherCatV1.21B27,2013-08-21 11:46:00,
2013-08-21 07:51:00,77.9,74.8,30.12,SE,135,0.0,0.0,90,0.00,,,0.00,WeatherCatV1.21B27,2013-08-21 11:51:00,
2013-08-21 07:56:00,78.1,75.0,30.12,SSE,157,0.0,0.0,90,0.00,,,0.00,WeatherCatV1.21B27,2013-08-21 11:56:00,
2013-08-21 08:01:00,78.1,75.0,30.12,SSE,157,0.0,0.0,90,0.00,,,0.00,WeatherCatV1.21B27,2013-08-21 12:01:00,
2013-08-21 08:06:00,78.4,75.4,30.12,SSE,157,0.0,0.0,90,0.00,,,0.00,WeatherCatV1.21B27,2013-08-21 12:06:00,
2013-08-21 08:11:00,78.4,75.4,30.12,SE,135,0.0,0.0,90,0.00,,,0.00,WeatherCatV1.21B27,2013-08-21 12:11:00,
2013-08-21 08:16:00,78.6,75.6,30.12,SSE,157,0.0,0.0,90,0.00,,,0.00,WeatherCatV1.21B27,2013-08-21 12:16:00,
2013-08-21 08:21:00,79.0,75.9,30.13,SE,135,0.0,0.0,90,0.00,,,0.00,WeatherCatV1.21B27,2013-08-21 12:21:00,
2013-08-21 08:26:00,79.3,76.2,30.13,SE,135,0.0,0.0,90,0.00,,,0.00,WeatherCatV1.21B27,2013-08-21 12:26:00,
2013-08-21 08:31:00,79.5,76.4,30.13,SE,135,0.0,0.0,90,0.00,,,0.00,WeatherCatV1.21B27,2013-08-21 12:31:00,
2013-08-21 08:36:00,79.5,76.4,30.13,SE,135,0.0,0.0,90,0.00,,,0.00,WeatherCatV1.21B27,2013-08-21 12:36:00,
2013-08-21 08:41:00,79.7,76.6,30.13,SSE,157,0.0,0.0,90,0.00,,,0.00,WeatherCatV1.21B27,2013-08-21 12:41:00,
2013-08-21 08:46:00,79.9,76.3,30.13,SSE,157,0.0,0.0,89,0.00,,,0.00,WeatherCatV1.21B27,2013-08-21 12:46:00,
2013-08-21 08:51:00,79.9,76.3,30.14,SSE,157,0.0,0.0,89,0.00,,,0.00,WeatherCatV1.21B27,2013-08-21 12:51:00,
2013-08-21 08:56:00,80.1,76.5,30.14,SSE,157,0.0,0.0,89,0.00,,,0.00,WeatherCatV1.21B27,2013-08-21 12:56:00,
2013-08-21 09:01:00,80.2,76.7,30.14,SSE,157,0.0,0.0,89,0.00,,,0.00,WeatherCatV1.21B27,2013-08-21 13:01:00,
2013-08-21 09:06:00,80.2,76.7,30.14,SE,135,0.0,0.0,89,0.00,,,0.00,WeatherCatV1.21B27,2013-08-21 13:06:00,
2013-08-21 09:11:00,80.4,76.8,30.14,SE,135,0.0,0.0,89,0.00,,,0.00,WeatherCatV1.21B27,2013-08-21 13:11:00,
2013-08-21 09:16:00,80.6,77.0,30.15,SE,135,0.0,0.0,89,0.00,,,0.00,WeatherCatV1.21B27,2013-08-21 13:16:00,
2013-08-21 09:21:00,80.8,77.2,30.14,SSE,157,0.0,0.0,89,0.00,,,0.00,WeatherCatV1.21B27,2013-08-21 13:21:00,
2013-08-21 09:26:00,80.8,77.2,30.14,SSE,157,0.0,0.0,89,0.00,,,0.00,WeatherCatV1.21B27,2013-08-21 13:26:00,
2013-08-21 09:31:00,80.8,77.2,30.14,SSE,157,0.0,0.0,89,0.00,,,0.00,WeatherCatV1.21B27,2013-08-21 13:31:00,
2013-08-21 09:36:00,81.0,77.4,30.15,SSE,157,0.0,0.0,89,0.00,,,0.00,WeatherCatV1.21B27,2013-08-21 13:36:00,
2013-08-21 09:41:00,81.1,77.2,30.15,SSE,157,0.0,0.0,88,0.00,,,0.00,WeatherCatV1.21B27,2013-08-21 13:41:00,
2013-08-21 09:46:00,81.0,76.7,30.15,SE,135,0.0,0.0,87,0.00,,,0.00,WeatherCatV1.21B27,2013-08-21 13:46:00,
2013-08-21 09:51:00,81.1,76.9,30.15,SSE,157,0.0,0.0,87,0.00,,,0.00,WeatherCatV1.21B27,2013-08-21 13:51:00,
2013-08-21 09:56:00,81.0,76.3,30.15,SE,135,0.0,0.0,86,0.00,,,0.00,WeatherCatV1.21B27,2013-08-21 13:56:00,
2013-08-21 10:01:00,81.0,76.3,30.15,SE,135,0.0,0.0,86,0.00,,,0.00,WeatherCatV1.21B27,2013-08-21 14:01:00,
2013-08-21 10:06:00,81.0,76.3,30.15,SSE,157,0.0,0.0,86,0.00,,,0.00,WeatherCatV1.21B27,2013-08-21 14:06:00,
2013-08-21 10:11:00,81.0,76.3,30.15,SE,135,0.0,0.0,85,0.00,,,0.00,WeatherCatV1.21B27,2013-08-21 14:11:00,
2013-08-21 10:16:00,81.1,76.2,30.16,SE,135,0.0,0.0,85,0.00,,,0.00,WeatherCatV1.21B27,2013-08-21 14:16:00,
2013-08-21 10:21:00,81.1,76.2,30.16,SE,135,0.0,0.0,85,0.00,,,0.00,WeatherCatV1.21B27,2013-08-21 14:21:00,
2013-08-21 10:26:00,81.1,76.2,30.15,SE,135,0.0,0.0,85,0.00,,,0.00,WeatherCatV1.21B27,2013-08-21 14:26:00,
2013-08-21 10:31:00,81.7,77.1,30.15,SE,135,0.0,0.0,86,0.00,,,0.00,WeatherCatV1.21B27,2013-08-21 14:31:00,
2013-08-21 10:36:00,82.2,77.6,30.15,SE,135,0.0,0.0,86,0.00,,,0.00,WeatherCatV1.21B27,2013-08-21 14:36:00,
2013-08-21 10:41:00,83.1,78.1,30.15,SE,135,0.0,0.0,85,0.00,,,0.00,WeatherCatV1.21B27,2013-08-21 14:41:00,
2013-08-21 10:46:00,83.8,78.5,30.16,SSE,157,0.0,0.0,84,0.00,,,0.00,WeatherCatV1.21B27,2013-08-21 14:46:00,
2013-08-21 10:51:00,84.2,78.8,30.16,SE,135,0.0,0.0,84,0.00,,,0.00,WeatherCatV1.21B27,2013-08-21 14:51:00,
2013-08-21 10:56:00,84.7,79.2,30.16,SE,135,0.0,1.1,83,0.00,,,0.00,WeatherCatV1.21B27,2013-08-21 14:56:00,
2013-08-21 11:01:00,85.3,79.5,30.16,SSE,157,0.0,0.0,83,0.00,,,0.00,WeatherCatV1.21B27,2013-08-21 15:01:00,
2013-08-21 11:06:00,85.8,80.1,30.17,SSE,157,0.0,0.0,83,0.00,,,0.00,WeatherCatV1.21B27,2013-08-21 15:06:00,
2013-08-21 11:11:00,86.0,79.9,30.17,SSE,157,0.0,0.0,82,0.00,,,0.00,WeatherCatV1.21B27,2013-08-21 15:11:00,
2013-08-21 11:16:00,86.4,79.5,30.17,SSE,157,0.0,0.0,80,0.00,,,0.00,WeatherCatV1.21B27,2013-08-21 15:16:00,
2013-08-21 11:21:00,86.7,79.9,30.18,SE,135,0.0,0.0,80,0.00,,,0.00,WeatherCatV1.21B27,2013-08-21 15:21:00,
2013-08-21 11:26:00,87.1,79.8,30.17,SE,135,0.0,1.6,79,0.00,,,0.00,WeatherCatV1.21B27,2013-08-21 15:26:00,
2013-08-21 11:31:00,87.3,80.0,30.18,ESE,112,0.9,0.9,79,0.00,,,0.00,WeatherCatV1.21B27,2013-08-21 15:31:00,
2013-08-21 11:36:00,87.4,79.8,30.17,SE,135,0.0,0.0,78,0.00,,,0.00,WeatherCatV1.21B27,2013-08-21 15:36:00,
2013-08-21 11:41:00,87.4,79.5,30.17,SE,135,0.0,0.0,77,0.00,,,0.00,WeatherCatV1.21B27,2013-08-21 15:41:00,
2013-08-21 11:46:00,87.8,79.7,30.16,SE,135,0.0,0.0,77,0.00,,,0.00,WeatherCatV1.21B27,2013-08-21 15:46:00,
2013-08-21 11:51:00,88.0,79.9,30.16,SSE,157,0.0,0.0,77,0.00,,,0.00,WeatherCatV1.21B27,2013-08-21 15:51:00,
2013-08-21 11:56:00,88.2,79.6,30.16,SE,135,0.0,0.0,76,0.00,,,0.00,WeatherCatV1.21B27,2013-08-21 15:56:00,
2013-08-21 12:01:00,88.2,80.0,30.16,SE,135,0.9,0.9,77,0.00,,,0.00,WeatherCatV1.21B27,2013-08-21 16:01:00,
2013-08-21 12:06:00,88.0,79.9,30.16,SE,135,0.9,0.9,77,0.00,,,0.00,WeatherCatV1.21B27,2013-08-21 16:06:00,
2013-08-21 12:11:00,88.0,80.0,30.15,East,90,2.0,2.0,77,0.00,,,0.00,WeatherCatV1.21B27,2013-08-21 16:11:00,
2013-08-21 12:16:00,88.3,80.2,30.16,ESE,112,0.0,0.0,77,0.00,,,0.00,WeatherCatV1.21B27,2013-08-21 16:16:00,
2013-08-21 12:21:00,88.5,80.4,30.16,SE,135,0.0,0.0,77,0.00,,,0.00,WeatherCatV1.21B27,2013-08-21 16:21:00,
2013-08-21 12:26:00,88.7,80.2,30.17,SE,135,0.0,0.0,76,0.00,,,0.00,WeatherCatV1.21B27,2013-08-21 16:26:00,
2013-08-21 12:31:00,88.2,79.6,30.17,SE,135,0.0,0.0,76,0.00,,,0.00,WeatherCatV1.21B27,2013-08-21 16:31:00,
2013-08-21 12:36:00,87.6,79.1,30.16,SE,135,0.0,0.0,76,0.00,,,0.00,WeatherCatV1.21B27,2013-08-21 16:36:00,
2013-08-21 12:41:00,86.7,78.7,30.17,SE,135,0.0,0.0,77,0.00,,,0.00,WeatherCatV1.21B27,2013-08-21 16:41:00,
2013-08-21 12:46:00,86.2,78.5,30.16,SSE,157,0.0,0.0,78,0.00,,,0.00,WeatherCatV1.21B27,2013-08-21 16:46:00,
2013-08-21 12:51:00,85.8,78.2,30.17,SE,135,0.0,0.0,78,0.00,,,0.00,WeatherCatV1.21B27,2013-08-21 16:51:00,
2013-08-21 12:56:00,85.3,78.0,30.17,ESE,112,0.0,0.0,79,0.00,,,0.00,WeatherCatV1.21B27,2013-08-21 16:56:00,
2013-08-21 13:03:00,84.7,77.5,30.16,SE,135,0.0,0.0,79,0.00,,,0.00,WeatherCatV1.21B27,2013-08-21 17:03:00,
2013-08-21 13:08:00,84.4,77.5,30.16,SE,135,0.0,0.0,80,0.00,,,0.00,WeatherCatV1.21B27,2013-08-21 17:08:00,
2013-08-21 13:13:00,84.0,77.5,30.16,SE,135,0.0,0.0,81,0.00,,,0.00,WeatherCatV1.21B27,2013-08-21 17:13:00,
2013-08-21 13:18:00,83.5,77.4,30.16,SE,135,0.0,0.0,82,0.00,,,0.00,WeatherCatV1.21B27,2013-08-21 17:18:00,
2013-08-21 13:23:00,83.1,77.1,30.16,SE,135,0.0,0.0,82,0.00,,,0.00,WeatherCatV1.21B27,2013-08-21 17:23:00,
2013-08-21 13:28:00,82.8,77.1,30.17,SE,135,0.0,0.0,83,0.00,,,0.00,WeatherCatV1.21B27,2013-08-21 17:28:00,
2013-08-21 13:33:00,82.2,76.9,30.16,SE,135,0.0,0.0,84,0.00,,,0.00,WeatherCatV1.21B27,2013-08-21 17:33:00,
2013-08-21 13:38:00,82.2,76.9,30.15,SE,135,0.0,0.0,84,0.00,,,0.00,WeatherCatV1.21B27,2013-08-21 17:38:00,
2013-08-21 13:43:00,82.0,76.8,30.15,ENE,67,2.5,2.5,84,0.00,,,0.00,WeatherCatV1.21B27,2013-08-21 17:43:00,
2013-08-21 13:48:00,81.3,75.7,30.16,ENE,67,0.0,0.0,83,0.00,,,0.00,WeatherCatV1.21B27,2013-08-21 17:48:00,
2013-08-21 13:53:00,81.0,75.0,30.15,SE,135,0.0,0.0,82,0.00,,,0.00,WeatherCatV1.21B27,2013-08-21 17:53:00,
2013-08-21 13:58:00,80.8,74.8,30.15,SE,135,0.9,0.9,82,0.00,,,0.00,WeatherCatV1.21B27,2013-08-21 17:58:00,
2013-08-21 14:03:00,80.4,74.4,30.15,ESE,112,3.1,3.1,82,0.00,,,0.00,WeatherCatV1.21B27,2013-08-21 18:03:00,
2013-08-21 14:08:00,79.9,73.9,30.14,SE,135,0.0,0.0,82,0.00,,,0.00,WeatherCatV1.21B27,2013-08-21 18:08:00,
2013-08-21 14:13:00,79.9,73.9,30.13,ESE,112,0.0,0.0,82,0.00,,,0.00,WeatherCatV1.21B27,2013-08-21 18:13:00,
2013-08-21 14:18:00,79.5,73.9,30.12,ESE,112,2.5,6.3,83,0.00,,,0.00,WeatherCatV1.21B27,2013-08-21 18:18:00,
2013-08-21 14:23:00,79.3,74.1,30.11,ENE,67,0.0,0.0,84,0.00,,,0.00,WeatherCatV1.21B27,2013-08-21 18:23:00,
2013-08-21 14:28:00,79.2,73.9,30.12,South,180,0.0,0.0,84,0.00,,,0.00,WeatherCatV1.21B27,2013-08-21 18:28:00,
2013-08-21 14:33:00,79.0,73.7,30.10,East,90,0.0,2.7,84,0.00,,,0.00,WeatherCatV1.21B27,2013-08-21 18:33:00,
2013-08-21 14:38:00,78.6,73.4,30.12,SSE,157,0.0,0.0,84,0.00,,,0.00,WeatherCatV1.21B27,2013-08-21 18:38:00,
2013-08-21 14:43:00,78.6,73.8,30.12,South,180,0.0,0.0,85,0.04,,,0.04,WeatherCatV1.21B27,2013-08-21 18:43:00,
2013-08-21 14:48:00,78.3,73.8,30.12,SSW,202,0.0,0.0,86,0.04,,,0.04,WeatherCatV1.21B27,2013-08-21 18:48:00,
2013-08-21 14:53:00,78.1,73.9,30.12,SW,225,0.0,0.0,87,0.04,,,0.04,WeatherCatV1.21B27,2013-08-21 18:53:00,
2013-08-21 14:58:00,78.1,73.9,30.12,SW,225,0.0,0.0,87,0.04,,,0.04,WeatherCatV1.21B27,2013-08-21 18:58:00,
2013-08-21 15:03:00,78.3,74.5,30.13,SW,225,0.0,0.0,88,0.04,,,0.04,WeatherCatV1.21B27,2013-08-21 19:03:00,
2013-08-21 15:08:00,78.6,74.8,30.13,WSW,247,0.0,0.0,88,0.04,,,0.04,WeatherCatV1.21B27,2013-08-21 19:08:00,
2013-08-21 15:13:00,79.0,75.2,30.13,WSW,247,0.0,0.0,88,0.04,,,0.04,WeatherCatV1.21B27,2013-08-21 19:13:00,
2013-08-21 15:18:00,79.5,75.7,30.12,South,180,0.0,0.9,88,0.04,,,0.04,WeatherCatV1.21B27,2013-08-21 19:18:00,
2013-08-21 15:23:00,79.7,75.8,30.12,South,180,0.0,0.0,88,0.04,,,0.04,WeatherCatV1.21B27,2013-08-21 19:23:00,
2013-08-21 15:28:00,80.2,76.3,30.12,SSE,157,0.0,0.0,88,0.04,,,0.04,WeatherCatV1.21B27,2013-08-21 19:28:00,
2013-08-21 15:33:00,80.8,76.5,30.12,SSW,202,0.0,0.0,87,0.04,,,0.04,WeatherCatV1.21B27,2013-08-21 19:33:00,
2013-08-21 15:38:00,81.1,76.9,30.11,South,180,0.0,0.0,87,0.00,,,0.04,WeatherCatV1.21B27,2013-08-21 19:38:00,
2013-08-21 15:43:00,81.5,76.9,30.12,South,180,0.0,0.0,86,0.00,,,0.04,WeatherCatV1.21B27,2013-08-21 19:43:00,
2013-08-21 15:48:00,82.2,77.6,30.12,SSE,157,0.0,0.0,86,0.00,,,0.04,WeatherCatV1.21B27,2013-08-21 19:48:00,
2013-08-21 15:53:00,82.9,77.9,30.12,NNE,22,0.0,0.0,85,0.00,,,0.04,WeatherCatV1.21B27,2013-08-21 19:53:00,
2013-08-21 15:58:00,83.5,78.5,30.11,SE,135,0.0,0.0,85,0.00,,,0.04,WeatherCatV1.21B27,2013-08-21 19:58:00,
2013-08-21 16:03:00,84.0,78.3,30.10,East,90,0.0,0.0,83,0.00,,,0.04,WeatherCatV1.21B27,2013-08-21 20:03:00,
2013-08-21 16:08:00,84.7,78.3,30.10,SE,135,0.0,0.0,81,0.00,,,0.04,WeatherCatV1.21B27,2013-08-21 20:08:00,
2013-08-21 16:13:00,84.9,78.1,30.10,SE,135,0.0,0.0,80,0.00,,,0.04,WeatherCatV1.21B27,2013-08-21 20:13:00,
2013-08-21 16:18:00,84.9,78.1,30.10,SE,135,0.0,0.0,80,0.00,,,0.04,WeatherCatV1.21B27,2013-08-21 20:18:00,
2013-08-21 16:23:00,84.9,77.7,30.10,East,90,0.9,0.9,79,0.00,,,0.04,WeatherCatV1.21B27,2013-08-21 20:23:00,
2013-08-21 16:28:00,85.1,77.5,30.10,SE,135,0.0,0.0,78,0.00,,,0.04,WeatherCatV1.21B27,2013-08-21 20:28:00,
2013-08-21 16:33:00,85.1,77.5,30.10,SE,135,0.0,3.4,78,0.00,,,0.04,WeatherCatV1.21B27,2013-08-21 20:33:00,
2013-08-21 16:38:00,85.3,78.0,30.09,South,180,0.0,0.0,79,0.00,,,0.04,WeatherCatV1.21B27,2013-08-21 20:38:00,
2013-08-21 16:43:00,85.5,78.2,30.10,WSW,247,0.0,0.0,79,0.00,,,0.04,WeatherCatV1.21B27,2013-08-21 20:43:00,
2013-08-21 16:48:00,86.2,78.9,30.10,NE,45,0.0,1.1,79,0.00,,,0.04,WeatherCatV1.21B27,2013-08-21 20:48:00,
2013-08-21 16:53:00,86.7,79.1,30.10,SSE,157,1.1,1.1,78,0.00,,,0.04,WeatherCatV1.21B27,2013-08-21 20:53:00,
2013-08-21 16:58:00,87.1,79.4,30.10,ENE,67,4.0,4.0,78,0.00,,,0.04,WeatherCatV1.21B27,2013-08-21 20:58:00,
2013-08-21 17:03:00,87.4,79.8,30.10,NW,315,0.0,0.0,78,0.00,,,0.04,WeatherCatV1.21B27,2013-08-21 21:03:00,
2013-08-21 17:08:00,87.6,79.5,30.10,ENE,67,0.0,0.0,77,0.00,,,0.04,WeatherCatV1.21B27,2013-08-21 21:08:00,
2013-08-21 17:13:00,87.4,79.8,30.10,NE,45,3.1,3.1,78,0.00,,,0.04,WeatherCatV1.21B27,2013-08-21 21:13:00,
2013-08-21 17:18:00,87.4,79.8,30.10,NNE,22,0.0,2.9,78,0.00,,,0.04,WeatherCatV1.21B27,2013-08-21 21:18:00,
2013-08-21 17:23:00,87.8,80.1,30.10,SW,225,0.0,0.0,78,0.00,,,0.04,WeatherCatV1.21B27,2013-08-21 21:23:00,
2013-08-21 17:28:00,88.3,80.2,30.10,ENE,67,2.2,2.2,77,0.00,,,0.04,WeatherCatV1.21B27,2013-08-21 21:28:00,
2013-08-21 17:33:00,88.9,80.3,30.10,ESE,112,0.0,1.1,76,0.00,,,0.04,WeatherCatV1.21B27,2013-08-21 21:33:00,
2013-08-21 17:38:00,89.4,80.4,30.10,East,90,2.0,2.0,75,0.00,,,0.04,WeatherCatV1.21B27,2013-08-21 21:38:00,
2013-08-21 17:43:00,89.4,80.0,30.10,SSE,157,0.0,0.0,74,0.00,,,0.04,WeatherCatV1.21B27,2013-08-21 21:43:00,
2013-08-21 17:48:00,88.9,79.9,30.10,NW,315,0.0,0.0,75,0.00,,,0.04,WeatherCatV1.21B27,2013-08-21 21:48:00,
2013-08-21 17:53:00,88.5,79.6,30.10,SSE,157,0.0,0.0,75,0.00,,,0.04,WeatherCatV1.21B27,2013-08-21 21:53:00,
2013-08-21 17:58:00,88.3,79.4,30.10,ESE,112,0.0,0.0,75,0.00,,,0.04,WeatherCatV1.21B27,2013-08-21 21:58:00,
2013-08-21 18:03:00,88.2,79.6,30.10,SE,135,0.0,0.0,76,0.00,,,0.04,WeatherCatV1.21B27,2013-08-21 22:03:00,
2013-08-21 18:08:00,88.2,79.6,30.10,SSE,157,0.0,0.0,76,0.00,,,0.04,WeatherCatV1.21B27,2013-08-21 22:08:00,
2013-08-21 18:13:00,87.6,79.3,30.11,SE,135,0.0,0.0,76,0.00,,,0.04,WeatherCatV1.21B27,2013-08-21 22:13:00,
2013-08-21 18:18:00,87.6,79.5,30.11,SSW,202,0.0,0.0,77,0.00,,,0.04,WeatherCatV1.21B27,2013-08-21 22:18:00,
2013-08-21 18:23:00,87.6,79.5,30.10,North,0,0.0,0.0,77,0.00,,,0.04,WeatherCatV1.21B27,2013-08-21 22:23:00,
2013-08-21 18:28:00,87.3,79.2,30.10,WNW,292,0.0,0.0,77,0.00,,,0.04,WeatherCatV1.21B27,2013-08-21 22:28:00,
2013-08-21 18:33:00,86.7,78.7,30.10,SSW,202,0.0,0.0,77,0.00,,,0.04,WeatherCatV1.21B27,2013-08-21 22:33:00,
2013-08-21 18:38:00,86.7,79.1,30.10,ESE,112,0.0,0.0,78,0.00,,,0.04,WeatherCatV1.21B27,2013-08-21 22:38:00,
2013-08-21 18:43:00,86.2,78.7,30.10,SSW,202,0.0,0.0,78,0.00,,,0.04,WeatherCatV1.21B27,2013-08-21 22:43:00,
2013-08-21 18:48:00,85.8,78.6,30.10,SSW,202,0.0,0.0,79,0.00,,,0.04,WeatherCatV1.21B27,2013-08-21 22:48:00,
2013-08-21 18:53:00,85.6,78.4,30.10,SW,225,0.0,0.0,79,0.00,,,0.04,WeatherCatV1.21B27,2013-08-21 22:53:00,
2013-08-21 18:58:00,85.3,78.4,30.10,SSW,202,0.0,0.0,80,0.00,,,0.04,WeatherCatV1.21B27,2013-08-21 22:58:00,
2013-08-21 19:03:00,84.9,78.1,30.10,South,180,0.0,0.0,80,0.00,,,0.04,WeatherCatV1.21B27,2013-08-21 23:03:00,
2013-08-21 19:08:00,84.7,77.9,30.10,SW,225,0.0,0.0,80,0.00,,,0.04,WeatherCatV1.21B27,2013-08-21 23:08:00,
2013-08-21 19:13:00,84.2,78.1,30.10,ESE,112,0.0,0.0,81,0.00,,,0.04,WeatherCatV1.21B27,2013-08-21 23:13:00,
2013-08-21 19:18:00,84.0,77.9,30.10,SSW,202,0.0,0.0,82,0.00,,,0.04,WeatherCatV1.21B27,2013-08-21 23:18:00,
2013-08-21 19:23:00,83.8,77.7,30.10,South,180,0.0,0.0,82,0.00,,,0.04,WeatherCatV1.21B27,2013-08-21 23:23:00,
2013-08-21 19:28:00,83.3,77.4,30.10,ESE,112,0.0,0.0,82,0.00,,,0.04,WeatherCatV1.21B27,2013-08-21 23:28:00,
2013-08-21 19:33:00,83.1,77.4,30.10,SW,225,0.0,0.0,83,0.00,,,0.04,WeatherCatV1.21B27,2013-08-21 23:33:00,
2013-08-21 19:38:00,82.9,77.2,30.09,ENE,67,0.0,0.0,83,0.00,,,0.04,WeatherCatV1.21B27,2013-08-21 23:38:00,
2013-08-21 19:43:00,82.9,77.2,30.09,SE,135,0.0,0.0,83,0.00,,,0.04,WeatherCatV1.21B27,2013-08-21 23:43:00,
2013-08-21 19:48:00,82.6,77.3,30.09,NNE,22,0.0,0.0,84,0.00,,,0.04,WeatherCatV1.21B27,2013-08-21 23:48:00,
2013-08-21 19:53:00,82.4,77.1,30.10,SSW,202,0.0,0.0,84,0.00,,,0.04,WeatherCatV1.21B27,2013-08-21 23:53:00,
2013-08-21 19:58:00,82.2,76.9,30.09,SE,135,0.0,0.0,84,0.00,,,0.04,WeatherCatV1.21B27,2013-08-21 23:58:00,
2013-08-21 20:03:00,82.0,76.8,30.10,SSE,157,0.0,0.0,84,0.00,,,0.04,WeatherCatV1.21B27,2013-08-22 00:03:00,
2013-08-21 20:08:00,82.0,77.1,30.10,WSW,247,0.0,0.0,85,0.00,,,0.04,WeatherCatV1.21B27,2013-08-22 00:08:00,
2013-08-21 20:13:00,81.7,76.9,30.10,SW,225,0.0,0.0,85,0.00,,,0.04,WeatherCatV1.21B27,2013-08-22 00:13:00,
2013-08-21 20:18:00,81.7,77.1,30.10,SSE,157,0.0,0.0,86,0.00,,,0.04,WeatherCatV1.21B27,2013-08-22 00:18:00,
2013-08-21 20:23:00,81.5,76.9,30.10,SSE,157,0.0,0.0,86,0.00,,,0.04,WeatherCatV1.21B27,2013-08-22 00:23:00,
2013-08-21 20:28:00,81.3,76.7,30.10,SSE,157,0.0,0.0,86,0.00,,,0.04,WeatherCatV1.21B27,2013-08-22 00:28:00,
2013-08-21 20:33:00,81.3,76.7,30.10,SSE,157,0.0,0.0,86,0.00,,,0.04,WeatherCatV1.21B27,2013-08-22 00:33:00,
2013-08-21 20:38:00,81.1,76.5,30.09,SSE,157,0.0,0.0,86,0.00,,,0.04,WeatherCatV1.21B27,2013-08-22 00:38:00,
2013-08-21 20:43:00,81.1,76.9,30.10,SSE,157,0.0,0.0,86,0.00,,,0.04,WeatherCatV1.21B27,2013-08-22 00:43:00,
2013-08-21 20:48:00,81.0,76.7,30.10,SSE,157,0.0,0.0,87,0.00,,,0.04,WeatherCatV1.21B27,2013-08-22 00:48:00,
2013-08-21 20:53:00,81.0,76.7,30.10,SSE,157,0.0,0.0,87,0.00,,,0.04,WeatherCatV1.21B27,2013-08-22 00:53:00,
2013-08-21 20:58:00,80.8,76.5,30.09,SSE,157,0.0,0.0,87,0.00,,,0.04,WeatherCatV1.21B27,2013-08-22 00:58:00,
2013-08-21 21:03:00,80.6,76.3,30.09,South,180,0.0,0.0,87,0.00,,,0.04,WeatherCatV1.21B27,2013-08-22 01:03:00,
2013-08-21 21:08:00,80.6,76.7,30.10,SSE,157,0.0,0.0,88,0.00,,,0.04,WeatherCatV1.21B27,2013-08-22 01:08:00,
2013-08-21 21:13:00,80.4,76.5,30.10,South,180,0.0,0.0,88,0.00,,,0.04,WeatherCatV1.21B27,2013-08-22 01:13:00,
2013-08-21 21:18:00,80.4,76.5,30.10,South,180,0.0,0.0,88,0.00,,,0.04,WeatherCatV1.21B27,2013-08-22 01:18:00,
2013-08-21 21:23:00,80.4,76.5,30.10,ESE,112,0.0,0.0,88,0.00,,,0.04,WeatherCatV1.21B27,2013-08-22 01:23:00,
2013-08-21 21:28:00,80.4,76.5,30.10,SSE,157,0.0,0.0,88,0.00,,,0.04,WeatherCatV1.21B27,2013-08-22 01:28:00,
2013-08-21 21:33:00,80.2,76.3,30.10,South,180,0.0,0.0,88,0.00,,,0.04,WeatherCatV1.21B27,2013-08-22 01:33:00,
2013-08-21 21:38:00,80.2,76.3,30.10,SSE,157,0.0,0.0,88,0.00,,,0.04,WeatherCatV1.21B27,2013-08-22 01:38:00,
2013-08-21 21:43:00,80.2,76.3,30.10,South,180,0.0,0.0,88,0.00,,,0.04,WeatherCatV1.21B27,2013-08-22 01:43:00,
2013-08-21 21:48:00,80.2,76.3,30.10,South,180,0.0,0.0,88,0.00,,,0.04,WeatherCatV1.21B27,2013-08-22 01:48:00,
2013-08-21 21:53:00,80.2,76.3,30.10,SSW,202,0.0,0.0,88,0.00,,,0.04,WeatherCatV1.21B27,2013-08-22 01:53:00,
2013-08-21 21:58:00,80.1,76.2,30.10,South,180,0.0,0.0,88,0.00,,,0.04,WeatherCatV1.21B27,2013-08-22 01:58:00,
2013-08-21 22:03:00,79.9,76.0,30.09,South,180,0.0,0.0,88,0.00,,,0.04,WeatherCatV1.21B27,2013-08-22 02:03:00,
2013-08-21 22:08:00,79.9,76.3,30.10,South,180,0.0,0.0,89,0.00,,,0.04,WeatherCatV1.21B27,2013-08-22 02:08:00,
2013-08-21 22:13:00,79.9,76.3,30.10,South,180,0.0,0.0,89,0.00,,,0.04,WeatherCatV1.21B27,2013-08-22 02:13:00,
2013-08-21 22:18:00,79.7,76.2,30.10,SE,135,0.0,0.0,89,0.00,,,0.04,WeatherCatV1.21B27,2013-08-22 02:18:00,
2013-08-21 22:23:00,79.7,76.2,30.10,SE,135,0.0,0.0,89,0.00,,,0.04,WeatherCatV1.21B27,2013-08-22 02:23:00,
2013-08-21 22:28:00,79.7,76.2,30.10,SE,135,0.0,0.0,89,0.00,,,0.04,WeatherCatV1.21B27,2013-08-22 02:28:00,
2013-08-21 22:33:00,79.7,75.8,30.10,SE,135,0.0,0.0,88,0.00,,,0.04,WeatherCatV1.21B27,2013-08-22 02:33:00,
2013-08-21 22:38:00,79.7,75.8,30.10,SE,135,0.0,0.0,88,0.00,,,0.04,WeatherCatV1.21B27,2013-08-22 02:38:00,
2013-08-21 22:43:00,79.5,75.8,30.10,SE,135,0.0,0.0,88,0.00,,,0.04,WeatherCatV1.21B27,2013-08-22 02:43:00,
2013-08-21 22:48:00,79.5,75.7,30.11,SE,135,0.0,0.0,88,0.00,,,0.04,WeatherCatV1.21B27,2013-08-22 02:48:00,
2013-08-21 22:53:00,79.5,75.7,30.10,SE,135,0.0,0.0,88,0.00,,,0.04,WeatherCatV1.21B27,2013-08-22 02:53:00,
2013-08-21 22:58:00,79.5,75.7,30.11,SE,135,0.0,0.0,88,0.00,,,0.04,WeatherCatV1.21B27,2013-08-22 02:58:00,
2013-08-21 23:03:00,79.5,75.7,30.11,SE,135,0.0,0.0,88,0.00,,,0.04,WeatherCatV1.21B27,2013-08-22 03:03:00,
2013-08-21 23:08:00,79.5,75.7,30.12,SE,135,0.0,0.0,88,0.00,,,0.04,WeatherCatV1.21B27,2013-08-22 03:08:00,
2013-08-21 23:13:00,79.5,75.7,30.11,SE,135,0.0,0.0,88,0.00,,,0.04,WeatherCatV1.21B27,2013-08-22 03:13:00,
2013-08-21 23:18:00,79.5,76.0,30.12,SE,135,0.0,0.0,89,0.00,,,0.04,WeatherCatV1.21B27,2013-08-22 03:18:00,
2013-08-21 23:23:00,79.5,76.0,30.11,SE,135,0.0,0.0,89,0.00,,,0.04,WeatherCatV1.21B27,2013-08-22 03:23:00,
2013-08-21 23:28:00,79.5,76.0,30.11,SE,135,0.0,0.0,89,0.00,,,0.04,WeatherCatV1.21B27,2013-08-22 03:28:00,
2013-08-21 23:33:00,79.3,75.9,30.12,SSE,157,0.0,0.0,89,0.00,,,0.04,WeatherCatV1.21B27,2013-08-22 03:33:00,
2013-08-21 23:38:00,79.3,75.9,30.12,SSE,157,0.0,0.0,89,0.00,,,0.04,WeatherCatV1.21B27,2013-08-22 03:38:00,
2013-08-21 23:43:00,79.5,76.0,30.11,SSW,202,0.0,0.0,89,0.00,,,0.04,WeatherCatV1.21B27,2013-08-22 03:43:00,
2013-08-21 23:48:00,79.5,76.0,30.11,SSE,157,0.0,0.0,89,0.00,,,0.04,WeatherCatV1.21B27,2013-08-22 03:48:00,
2013-08-21 23:53:00,79.5,76.0,30.12,SSE,157,0.0,0.0,89,0.00,,,0.04,WeatherCatV1.21B27,2013-08-22 03:53:00,
2013-08-21 23:58:00,79.5,76.0,30.12,SE,135,0.0,0.0,89,0.00,,,0.04,WeatherCatV1.21B27,2013-08-22 03:58:00,